Regional Weather Roundup
Issued by NWS Bismarck, ND

Home | Current Version | Previous Version | Text Only | Print | Product List | Glossary On
Versions: 1 2 3 4 5 6 7 8 9 10 11 12 13 14 15 16 17 18 19 20 21 22 23 24 25 26 27 28 29 30 31 32 33 34 35 36 37 38 39 40 41 42 43 44 45 46 47 48 49 50
000
ASUS43 KBIS 301310
RWRBIS

NWR BROADCAST TEXT
NATIONAL WEATHER SERVICE BISMARCK ND
800 AM CDT TUE SEP 30 2014

NOTE: "FAIR" INDICATES FEW OR NO CLOUDS BELOW 12,000 FEET WITH NO
SIGNIFICANT WEATHER AND/OR OBSTRUCTIONS TO VISIBILITY.


CITY           SKY/WX    TMP DP  RH WIND       PRES   REMARKS
WILLISTON      RAIN      52  51  97 SE5       29.71F FOG
MINOT          CLOUDY    49  47  93 E13       29.76F FOG
MINOT AFB      CLOUDY    49  49 100 SE16      29.76F FOG
BISMARCK       CLOUDY    54  50  86 E14       29.74F
DICKINSON      LGT RAIN  51  51 100 E12       29.66F
GARRISON         N/A     53  51  93 SE10      29.75S
HETTINGER ARPT RAIN      53  52  96 E15       29.64F FOG
JAMESTOWN      CLOUDY    45  43  93 SE15      29.84F
BEACH            N/A     50  50 100 E5        29.68S
CARRINGTON     CLOUDY    45  45 100 SE18G29   29.84S
CROSBY         LGT RAIN  50  50 100 SE7       29.73F
HARVEY         CLOUDY    46  46 100 SE17G24   29.80S
HAZEN          CLOUDY    52  50  93 E8        29.74F
LINTON         CLOUDY    54  52  94 SE17G31   29.73R
MANDAN         CLOUDY    54  50  87 E9        29.74F
OAKES            N/A     46  46 100 E17       29.83F
RUGBY          CLOUDY    46  46 100 SE16G22   29.81F
STANLEY        CLOUDY    50  50 100 SE17      29.74S FOG
TIOGA          CLOUDY    50  50 100 SE9       29.75F FOG
WATFORD CITY   LGT RAIN  50  50 100 SE6       29.69F
$$

CITY           SKY/WX    TMP DP  RH WIND       PRES   REMARKS
GRAND FORKS    MOCLDY    43  41  93 SE10      29.95F
GRAND FORKS AF CLOUDY    42  41  99 SE8       29.95R
DEVILS LAKE    CLOUDY    46  39  76 SE15      29.84F
FARGO          CLOUDY    46  42  86 SE12      29.94F
CANDO          CLOUDY    46  45  93 SE17      29.85F
CAVALIER       CLOUDY    41  39  93 SE6       29.95F
GRAFTON        FAIR      39  39 100 E8        29.95F
GWINNER        CLOUDY    46  46 100 SE18G28   29.88F
LANGDON        FOG       43  41  93 SE16      29.89F VSB 1/2
ROLLA          CLOUDY    45  45 100 SE13      29.86F
WALHALLA       CLOUDY    41  41 100 SE10      29.94F
$$

CITY           SKY/WX    TMP DP  RH WIND       PRES   REMARKS
ABERDEEN       MOCLDY    52  48  86 E12       29.78F
MOBRIDGE       LGT RAIN  54  51  90 E18G29    29.64F
BUFFALO          N/A     53  52  96 NE15      29.54F
RAPID CITY     LGT RAIN  55  54  96 N15       29.45F VSB 1
GLASGOW        CLOUDY    51  49  92 SE9       29.64F
SIDNEY         CLOUDY    54  52  94 CALM      29.71F
WOLF POINT     CLOUDY    53  51  93 SE3       29.68F
GLENDIVE       CLOUDY    52  50  93 N7        29.66F
MILES CITY     CLOUDY    51  49  92 NW8       29.65F
BAKER          LGT RAIN  51  50  96 E8        29.67S
$$

CITY           SKY/WX    TMP DP  RH WIND       PRES   REMARKS
BILLINGS       PTCLDY    45  42  89 SW6       29.72F
GREAT FALLS    CLOUDY    52  45  77 SW12      29.68F
REGINA         DRIZZLE   50  50 100 SE16      29.70F FOG
ESTEVAN        LGT RAIN  50  50 100 SE10      29.74F
$$



USA.gov is the U.S. government's official web portal to all federal, state and local government web resources and services.